When you browse on this site, cookies collect data to enhance your experience and personalize the content and advertising you see.
Visit our Privacy Policy to learn more. By continuing to use the site, you agree to this use of cookies and data.
  • In Belgium
  • List of Countries
  • For 7 days
  • Water Temperature
  • Weather Map
  • Weather Widgets
  • user-avatar
    Login

    Hourly Weather Korechkino

    Today, 17 August, Saturday

    Time Temperature Precipitation Wind Pressure Humidity
    00:00 +12°C° 0 mm 1 mps 750 mmHg 88%
    01:00 +11°C° 0 mm 1 mps 751 mmHg 89%
    02:00 +10°C° 0 mm 2 mps 751 mmHg 88%
    03:00 +10°C° 0 mm 2 mps 751 mmHg 87%
    04:00 +10°C° 0 mm 2 mps 751 mmHg 87%
    05:00 +10°C° 0 mm 2 mps 751 mmHg 87%
    06:00 +13°C° 0 mm 2 mps 751 mmHg 81%
    07:00 +14°C° 0 mm 2 mps 751 mmHg 75%
    08:00 +16°C° 0 mm 2 mps 751 mmHg 69%
    09:00 +18°C° 0 mm 2 mps 751 mmHg 64%
    10:00 +19°C° 0 mm 2 mps 751 mmHg 59%
    11:00 +21°C° 0 mm 2 mps 751 mmHg 55%
    12:00 +21°C° 0 mm 2 mps 751 mmHg 54%
    13:00 +21°C° 0 mm 3 mps 751 mmHg 53%
    14:00 +22°C° 0 mm 3 mps 751 mmHg 51%
    15:00 +21°C° 0 mm 2 mps 750 mmHg 56%
    16:00 +21°C° 0 mm 2 mps 750 mmHg 61%
    17:00 +20°C° 0 mm 2 mps 750 mmHg 65%
    18:00 +19°C° 0 mm 2 mps 750 mmHg 70%
    19:00 +17°C° 0 mm 2 mps 750 mmHg 75%
    20:00 +15°C° 0 mm 2 mps 750 mmHg 80%
    21:00 +15°C° 0 mm 2 mps 749 mmHg 81%
    22:00 +15°C° 0 mm 2 mps 749 mmHg 82%
    23:00 +13°C° 0 mm 3 mps 749 mmHg 82%

    Tomorrow, 18 August, Sunday

    Time Temperature Precipitation Wind Pressure Humidity
    00:00 +13°C° 0 mm 3 mps 748 mmHg 83%
    01:00 +13°C° 0 mm 3 mps 748 mmHg 83%
    02:00 +13°C° 0 mm 3 mps 748 mmHg 83%
    03:00 +12°C° 0.1 mm 3 mps 747 mmHg 84%
    04:00 +12°C° 0.1 mm 3 mps 747 mmHg 85%
    05:00 +12°C° 0.1 mm 3 mps 747 mmHg 86%
    06:00 +12°C° 0.8 mm 4 mps 746 mmHg 89%
    07:00 +12°C° 0.8 mm 4 mps 746 mmHg 93%
    08:00 +12°C° 0.8 mm 4 mps 746 mmHg 96%
    09:00 +13°C° 0.8 mm 4 mps 745 mmHg 96%
    10:00 +13°C° 0.8 mm 4 mps 745 mmHg 97%
    11:00 +13°C° 0.8 mm 4 mps 745 mmHg 97%
    12:00 +13°C° 1.9 mm 4 mps 745 mmHg 97%
    13:00 +13°C° 1.9 mm 4 mps 744 mmHg 98%
    14:00 +13°C° 1.9 mm 4 mps 744 mmHg 98%
    15:00 +13°C° 1.6 mm 4 mps 744 mmHg 98%
    16:00 +13°C° 1.6 mm 3 mps 744 mmHg 98%
    17:00 +13°C° 1.6 mm 3 mps 744 mmHg 98%
    18:00 +13°C° 0.3 mm 3 mps 745 mmHg 98%
    19:00 +13°C° 0.3 mm 3 mps 745 mmHg 98%
    20:00 +13°C° 0.3 mm 3 mps 745 mmHg 98%
    21:00 +13°C° 0 mm 3 mps 745 mmHg 98%
    22:00 +13°C° 0 mm 3 mps 745 mmHg 98%
    23:00 +13°C° 0 mm 3 mps 746 mmHg 98%

    Day after tomorrow, 19 August, Monday

    Time Temperature Precipitation Wind Pressure Humidity
    00:00 +13°C° 0 mm 3 mps 746 mmHg 97%
    01:00 +13°C° 0 mm 3 mps 746 mmHg 97%
    02:00 +13°C° 0 mm 3 mps 746 mmHg 97%
    03:00 +12°C° 0 mm 3 mps 747 mmHg 97%
    04:00 +12°C° 0 mm 2 mps 747 mmHg 97%
    05:00 +12°C° 0 mm 2 mps 747 mmHg 97%
    06:00 +13°C° 0 mm 2 mps 748 mmHg 93%
    07:00 +15°C° 0 mm 2 mps 748 mmHg 89%
    08:00 +17°C° 0 mm 2 mps 749 mmHg 85%
    09:00 +19°C° 0 mm 2 mps 749 mmHg 75%
    10:00 +20°C° 0 mm 3 mps 749 mmHg 65%
    11:00 +22°C° 0 mm 3 mps 749 mmHg 54%
    12:00 +24°C° 0 mm 3 mps 749 mmHg 55%
    13:00 +25°C° 0 mm 3 mps 749 mmHg 55%
    14:00 +26°C° 0 mm 3 mps 750 mmHg 56%
    15:00 +25°C° 0 mm 3 mps 750 mmHg 61%
    16:00 +25°C° 0 mm 2 mps 750 mmHg 66%
    17:00 +24°C° 0 mm 2 mps 750 mmHg 71%
    18:00 +23°C° 0 mm 2 mps 750 mmHg 77%
    19:00 +20°C° 0 mm 2 mps 750 mmHg 83%
    20:00 +19°C° 0 mm 2 mps 750 mmHg 89%
    21:00 +18°C° 0 mm 2 mps 750 mmHg 90%
    22:00 +18°C° 0 mm 2 mps 751 mmHg 92%
    23:00 +17°C° 0 mm 2 mps 751 mmHg 94%

    20 August, Tuesday

    Time Temperature Precipitation Wind Pressure Humidity
    00:00 +17°C° 0.1 mm 2 mps 751 mmHg 95%
    01:00 +17°C° 0.1 mm 2 mps 751 mmHg 95%
    02:00 +17°C° 0.1 mm 2 mps 751 mmHg 96%
    03:00 +17°C° 0 mm 2 mps 751 mmHg 97%
    04:00 +17°C° 0 mm 2 mps 751 mmHg 98%
    05:00 +16°C° 0 mm 2 mps 752 mmHg 98%
    06:00 +17°C° 0.1 mm 2 mps 752 mmHg 96%
    07:00 +19°C° 0.1 mm 2 mps 752 mmHg 94%
    08:00 +20°C° 0.1 mm 2 mps 752 mmHg 92%
    09:00 +20°C° 0 mm 2 mps 752 mmHg 89%
    10:00 +21°C° 0 mm 2 mps 752 mmHg 87%
    11:00 +23°C° 0 mm 2 mps 753 mmHg 84%
    12:00 +21°C° 0.4 mm 2 mps 753 mmHg 88%
    13:00 +21°C° 0.4 mm 1 mps 753 mmHg 91%
    14:00 +21°C° 0.4 mm 1 mps 753 mmHg 94%
    15:00 +21°C° 0 mm 1 mps 753 mmHg 91%
    16:00 +21°C° 0 mm 1 mps 753 mmHg 88%
    17:00 +22°C° 0 mm 1 mps 753 mmHg 84%
    18:00 +20°C° 0 mm 1 mps 753 mmHg 88%
    19:00 +17°C° 0 mm 0 mps 753 mmHg 92%
    20:00 +16°C° 0 mm 0 mps 753 mmHg 95%
    21:00 +16°C° 0 mm 0 mps 753 mmHg 95%
    22:00 +15°C° 0 mm 0 mps 753 mmHg 95%
    23:00 +15°C° 0 mm 0 mps 753 mmHg 95%

    21 August, Wednesday

    Time Temperature Precipitation Wind Pressure Humidity
    00:00 +14°C° 0 mm 0 mps 753 mmHg 95%
    01:00 +14°C° 0 mm 0 mps 754 mmHg 95%
    02:00 +14°C° 0 mm 0 mps 754 mmHg 95%
    03:00 +14°C° 0 mm 0 mps 754 mmHg 95%
    04:00 +14°C° 0 mm 0 mps 754 mmHg 95%
    05:00 +14°C° 0 mm 0 mps 753 mmHg 95%
    06:00 +15°C° 0 mm 0 mps 754 mmHg 89%
    07:00 +17°C° 0 mm 0 mps 754 mmHg 84%
    08:00 +19°C° 0 mm 0 mps 754 mmHg 79%
    09:00 +22°C° 0 mm 1 mps 754 mmHg 72%
    10:00 +23°C° 0 mm 1 mps 754 mmHg 66%
    11:00 +25°C° 0 mm 1 mps 754 mmHg 60%
    12:00 +25°C° 0 mm 1 mps 754 mmHg 61%
    13:00 +25°C° 0 mm 1 mps 753 mmHg 62%
    14:00 +26°C° 0 mm 1 mps 753 mmHg 63%
    15:00 +25°C° 0.1 mm 1 mps 753 mmHg 70%
    16:00 +24°C° 0.1 mm 1 mps 752 mmHg 77%
    17:00 +23°C° 0.1 mm 1 mps 752 mmHg 84%
    18:00 +21°C° 0.1 mm 2 mps 751 mmHg 89%
    19:00 +20°C° 0.1 mm 2 mps 751 mmHg 93%
    20:00 +19°C° 0.1 mm 2 mps 751 mmHg 97%
    21:00 +19°C° 0.3 mm 2 mps 750 mmHg 97%
    22:00 +19°C° 0.3 mm 3 mps 749 mmHg 97%
    23:00 +19°C° 0.3 mm 3 mps 749 mmHg 98%

    22 August, Thursday

    Time Temperature Precipitation Wind Pressure Humidity
    00:00 +19°C° 0.2 mm 3 mps 748 mmHg 97%
    01:00 +19°C° 0.2 mm 4 mps 748 mmHg 96%
    02:00 +20°C° 0.2 mm 4 mps 748 mmHg 95%
    03:00 +19°C° 0 mm 4 mps 748 mmHg 96%
    04:00 +19°C° 0 mm 4 mps 747 mmHg 96%
    05:00 +19°C° 0 mm 4 mps 747 mmHg 96%
    06:00 +18°C° 0.1 mm 4 mps 748 mmHg 95%
    07:00 +18°C° 0.1 mm 4 mps 748 mmHg 93%
    08:00 +16°C° 0.1 mm 5 mps 749 mmHg 92%
    09:00 +16°C° 0.1 mm 5 mps 749 mmHg 89%
    10:00 +15°C° 0.1 mm 5 mps 750 mmHg 86%
    11:00 +15°C° 0.1 mm 4 mps 751 mmHg 83%
    12:00 +17°C° 0 mm 4 mps 751 mmHg 75%
    13:00 +19°C° 0 mm 4 mps 752 mmHg 67%
    14:00 +20°C° 0 mm 4 mps 752 mmHg 59%
    15:00 +20°C° 0 mm 4 mps 752 mmHg 61%
    16:00 +20°C° 0 mm 3 mps 752 mmHg 63%
    17:00 +20°C° 0 mm 2 mps 752 mmHg 66%
    18:00 +18°C° 0 mm 2 mps 752 mmHg 71%
    19:00 +16°C° 0 mm 2 mps 753 mmHg 77%
    20:00 +14°C° 0 mm 2 mps 753 mmHg 82%
    21:00 +14°C° 0 mm 2 mps 753 mmHg 85%
    22:00 +13°C° 0 mm 2 mps 753 mmHg 88%
    23:00 +13°C° 0 mm 2 mps 754 mmHg 91%
    Show more